Time,TemperatureF,DewpointF,PressureIn,WindDirection,WindDirectionDegrees,WindSpeedMPH,WindSpeedGustMPH,Humidity,HourlyPrecipIn,Conditions,Clouds,dailyrainin,SoftwareType,DateUTC
2013-08-17 00:01:00,61.7,53.7,30.21,SSW,202,0.0,0.0,75,0.00,,,0.00,WUHU21623XXSP,2013-08-17 04:01:00,
2013-08-17 00:06:00,61.5,53.5,30.21,SSW,202,0.0,0.0,75,0.00,,,0.00,WUHU21623XXSP,2013-08-17 04:06:00,
2013-08-17 00:11:00,61.5,53.9,30.22,SSW,202,0.0,0.0,76,0.00,,,0.00,WUHU21623XXSP,2013-08-17 04:11:00,
2013-08-17 00:16:00,61.3,53.7,30.22,SSW,202,0.0,0.0,76,0.00,,,0.00,WUHU21623XXSP,2013-08-17 04:16:00,
2013-08-17 00:21:00,61.3,53.7,30.22,SSW,202,0.0,0.0,76,0.00,,,0.00,WUHU21623XXSP,2013-08-17 04:21:00,
2013-08-17 00:26:00,61.3,53.7,30.21,SSW,202,0.0,0.0,76,0.00,,,0.00,WUHU21623XXSP,2013-08-17 04:26:00,
2013-08-17 00:31:00,61.3,54.1,30.22,SSW,202,0.0,0.0,77,0.00,,,0.00,WUHU21623XXSP,2013-08-17 04:31:00,
2013-08-17 00:36:00,61.3,53.7,30.21,SSW,202,0.0,0.0,76,0.00,,,0.00,WUHU21623XXSP,2013-08-17 04:36:00,
2013-08-17 00:41:00,61.2,53.6,30.22,SSW,202,0.0,0.0,76,0.00,,,0.00,WUHU21623XXSP,2013-08-17 04:41:00,
2013-08-17 00:46:00,61.2,53.6,30.22,SSW,202,0.0,0.0,76,0.00,,,0.00,WUHU21623XXSP,2013-08-17 04:46:00,
2013-08-17 00:51:00,61.0,53.4,30.22,SSW,202,0.0,0.0,76,0.00,,,0.00,WUHU21623XXSP,2013-08-17 04:51:00,
2013-08-17 00:56:00,61.0,53.4,30.22,SSW,202,0.0,0.0,76,0.00,,,0.00,WUHU21623XXSP,2013-08-17 04:56:00,
2013-08-17 01:01:00,61.0,53.4,30.22,SSW,202,0.0,0.0,76,0.00,,,0.00,WUHU21623XXSP,2013-08-17 05:01:00,
2013-08-17 01:06:00,60.8,53.6,30.22,SSW,202,0.0,0.0,77,0.00,,,0.00,WUHU21623XXSP,2013-08-17 05:06:00,
2013-08-17 01:11:00,60.6,53.4,30.22,SSW,202,0.0,0.0,77,0.00,,,0.00,WUHU21623XXSP,2013-08-17 05:11:00,
2013-08-17 01:16:00,60.4,53.2,30.22,SSW,202,0.0,0.0,77,0.00,,,0.00,WUHU21623XXSP,2013-08-17 05:16:00,
2013-08-17 01:21:00,60.4,53.2,30.22,SSW,202,0.0,0.0,77,0.00,,,0.00,WUHU21623XXSP,2013-08-17 05:21:00,
2013-08-17 01:26:00,60.4,53.2,30.22,SSW,202,0.0,0.0,77,0.00,,,0.00,WUHU21623XXSP,2013-08-17 05:26:00,
2013-08-17 01:31:00,60.3,53.1,30.22,SSW,202,0.0,0.0,77,0.00,,,0.00,WUHU21623XXSP,2013-08-17 05:31:00,
2013-08-17 01:36:00,60.1,53.2,30.22,SSW,202,0.0,0.0,78,0.00,,,0.00,WUHU21623XXSP,2013-08-17 05:36:00,
2013-08-17 01:41:00,60.1,53.2,30.22,SSW,202,0.0,0.0,78,0.00,,,0.00,WUHU21623XXSP,2013-08-17 05:41:00,
2013-08-17 01:46:00,60.1,53.2,30.22,SSW,202,0.0,0.0,78,0.00,,,0.00,WUHU21623XXSP,2013-08-17 05:46:00,
2013-08-17 01:51:00,59.9,53.1,30.22,SSW,202,0.0,0.0,78,0.00,,,0.00,WUHU21623XXSP,2013-08-17 05:51:00,
2013-08-17 01:56:00,59.9,53.1,30.22,SSW,202,0.0,0.0,78,0.00,,,0.00,WUHU21623XXSP,2013-08-17 05:56:00,
2013-08-17 02:01:00,59.9,53.1,30.22,SSW,202,0.0,0.0,78,0.00,,,0.00,WUHU21623XXSP,2013-08-17 06:01:00,
2013-08-17 02:06:00,59.9,53.1,30.22,SSW,202,0.0,0.0,78,0.00,,,0.00,WUHU21623XXSP,2013-08-17 06:06:00,
2013-08-17 02:11:00,59.7,52.9,30.21,SSW,202,0.0,0.0,78,0.00,,,0.00,WUHU21623XXSP,2013-08-17 06:11:00,
2013-08-17 02:16:00,59.7,52.9,30.21,SSW,202,0.0,0.0,78,0.00,,,0.00,WUHU21623XXSP,2013-08-17 06:16:00,
2013-08-17 02:21:00,59.7,52.9,30.21,SSW,202,0.0,0.0,78,0.00,,,0.00,WUHU21623XXSP,2013-08-17 06:21:00,
2013-08-17 02:26:00,59.5,52.7,30.21,SSW,202,0.0,0.0,78,0.00,,,0.00,WUHU21623XXSP,2013-08-17 06:26:00,
2013-08-17 02:31:00,59.5,52.7,30.22,SSW,202,0.0,0.0,78,0.00,,,0.00,WUHU21623XXSP,2013-08-17 06:31:00,
2013-08-17 02:36:00,59.5,52.7,30.22,SSW,202,0.0,0.0,78,0.00,,,0.00,WUHU21623XXSP,2013-08-17 06:36:00,
2013-08-17 02:41:00,59.4,52.9,30.22,SSW,202,0.0,0.0,79,0.00,,,0.00,WUHU21623XXSP,2013-08-17 06:41:00,
2013-08-17 02:46:00,59.0,52.5,30.22,SSW,202,0.0,0.0,79,0.00,,,0.00,WUHU21623XXSP,2013-08-17 06:46:00,
2013-08-17 02:51:00,58.8,52.3,30.21,SSW,202,0.0,0.0,79,0.00,,,0.00,WUHU21623XXSP,2013-08-17 06:51:00,
2013-08-17 02:56:00,58.8,52.3,30.21,SSW,202,0.0,0.0,79,0.00,,,0.00,WUHU21623XXSP,2013-08-17 06:56:00,
2013-08-17 03:01:00,58.8,52.3,30.22,SSW,202,0.0,0.0,79,0.00,,,0.00,WUHU21623XXSP,2013-08-17 07:01:00,
2013-08-17 03:06:00,58.8,52.3,30.22,SSW,202,0.0,0.0,79,0.00,,,0.00,WUHU21623XXSP,2013-08-17 07:06:00,
2013-08-17 03:11:00,58.8,52.3,30.22,SSW,202,0.0,0.0,79,0.00,,,0.00,WUHU21623XXSP,2013-08-17 07:11:00,
2013-08-17 03:16:00,58.8,52.3,30.22,SSW,202,0.0,0.0,79,0.00,,,0.00,WUHU21623XXSP,2013-08-17 07:16:00,
2013-08-17 03:21:00,58.8,52.3,30.22,SSW,202,0.0,0.0,79,0.00,,,0.00,WUHU21623XXSP,2013-08-17 07:21:00,
2013-08-17 03:26:00,58.6,52.2,30.22,SSW,202,0.0,0.0,79,0.00,,,0.00,WUHU21623XXSP,2013-08-17 07:26:00,
2013-08-17 03:31:00,58.6,52.2,30.22,SSW,202,0.0,0.0,79,0.00,,,0.00,WUHU21623XXSP,2013-08-17 07:31:00,
2013-08-17 03:36:00,58.1,52.0,30.22,SSW,202,0.0,0.0,80,0.00,,,0.00,WUHU21623XXSP,2013-08-17 07:36:00,
2013-08-17 03:41:00,58.1,52.0,30.22,SSW,202,0.0,0.0,80,0.00,,,0.00,WUHU21623XXSP,2013-08-17 07:41:00,
2013-08-17 03:46:00,57.6,51.4,30.22,SSW,202,0.0,0.0,80,0.00,,,0.00,WUHU21623XXSP,2013-08-17 07:46:00,
2013-08-17 03:51:00,57.4,51.3,30.22,SSW,202,0.0,0.0,80,0.00,,,0.00,WUHU21623XXSP,2013-08-17 07:51:00,
2013-08-17 03:56:00,57.0,50.9,30.22,SSW,202,0.0,0.0,80,0.00,,,0.00,WUHU21623XXSP,2013-08-17 07:56:00,
2013-08-17 04:01:00,57.0,50.9,30.22,SSW,202,0.0,0.0,80,0.00,,,0.00,WUHU21623XXSP,2013-08-17 08:01:00,
2013-08-17 04:06:00,57.0,50.9,30.22,SSW,202,0.0,0.0,80,0.00,,,0.00,WUHU21623XXSP,2013-08-17 08:06:00,
2013-08-17 04:11:00,56.8,50.7,30.22,SSW,202,0.0,0.0,80,0.00,,,0.00,WUHU21623XXSP,2013-08-17 08:11:00,
2013-08-17 04:16:00,56.8,50.7,30.22,SSW,202,0.0,0.0,80,0.00,,,0.00,WUHU21623XXSP,2013-08-17 08:16:00,
2013-08-17 04:21:00,56.8,50.7,30.22,SSW,202,0.0,0.0,80,0.00,,,0.00,WUHU21623XXSP,2013-08-17 08:21:00,
2013-08-17 04:26:00,56.7,50.5,30.22,SSW,202,0.0,0.0,80,0.00,,,0.00,WUHU21623XXSP,2013-08-17 08:26:00,
2013-08-17 04:31:00,56.7,50.5,30.23,SSW,202,0.0,0.0,80,0.00,,,0.00,WUHU21623XXSP,2013-08-17 08:31:00,
2013-08-17 04:36:00,56.5,50.4,30.22,SSW,202,0.0,0.0,80,0.00,,,0.00,WUHU21623XXSP,2013-08-17 08:36:00,
2013-08-17 04:41:00,56.5,50.7,30.22,SSW,202,0.0,0.0,81,0.00,,,0.00,WUHU21623XXSP,2013-08-17 08:41:00,
2013-08-17 04:46:00,56.5,51.0,30.22,SSW,202,0.0,0.0,82,0.00,,,0.00,WUHU21623XXSP,2013-08-17 08:46:00,
2013-08-17 04:51:00,56.1,50.3,30.22,SSW,202,0.0,0.0,81,0.00,,,0.00,WUHU21623XXSP,2013-08-17 08:51:00,
2013-08-17 04:56:00,56.1,50.3,30.22,SSW,202,0.0,0.0,81,0.00,,,0.00,WUHU21623XXSP,2013-08-17 08:56:00,
2013-08-17 05:01:00,56.1,50.6,30.22,SSW,202,0.0,0.0,82,0.00,,,0.00,WUHU21623XXSP,2013-08-17 09:01:00,
2013-08-17 05:06:00,56.1,50.6,30.22,SSW,202,0.0,0.0,82,0.00,,,0.00,WUHU21623XXSP,2013-08-17 09:06:00,
2013-08-17 05:11:00,55.9,50.5,30.22,SSW,202,0.0,0.0,82,0.00,,,0.00,WUHU21623XXSP,2013-08-17 09:11:00,
2013-08-17 05:16:00,55.9,50.5,30.23,SSW,202,0.0,0.0,82,0.00,,,0.00,WUHU21623XXSP,2013-08-17 09:16:00,
2013-08-17 05:21:00,55.9,50.5,30.22,SSW,202,0.0,0.0,82,0.00,,,0.00,WUHU21623XXSP,2013-08-17 09:21:00,
2013-08-17 05:26:00,55.9,50.5,30.23,SSW,202,0.0,0.0,82,0.00,,,0.00,WUHU21623XXSP,2013-08-17 09:26:00,
2013-08-17 05:31:00,55.9,50.5,30.23,SSW,202,0.0,0.0,82,0.00,,,0.00,WUHU21623XXSP,2013-08-17 09:31:00,
2013-08-17 05:36:00,55.9,50.5,30.23,SSW,202,0.0,0.0,82,0.00,,,0.00,WUHU21623XXSP,2013-08-17 09:36:00,
2013-08-17 05:41:00,55.9,50.5,30.23,SSW,202,0.0,0.0,82,0.00,,,0.00,WUHU21623XXSP,2013-08-17 09:41:00,
2013-08-17 05:46:00,55.9,50.5,30.23,SSW,202,0.0,0.0,82,0.00,,,0.00,WUHU21623XXSP,2013-08-17 09:46:00,
2013-08-17 05:51:00,55.9,50.5,30.23,SSW,202,0.0,0.0,82,0.00,,,0.00,WUHU21623XXSP,2013-08-17 09:51:00,
2013-08-17 05:56:00,56.1,50.6,30.23,SSW,202,0.0,0.0,82,0.00,,,0.00,WUHU21623XXSP,2013-08-17 09:56:00,
2013-08-17 06:01:00,56.1,50.6,30.23,SSW,202,0.0,0.0,82,0.00,,,0.00,WUHU21623XXSP,2013-08-17 10:01:00,
2013-08-17 06:06:00,56.1,50.6,30.23,SSW,202,0.0,0.0,82,0.00,,,0.00,WUHU21623XXSP,2013-08-17 10:06:00,
2013-08-17 06:11:00,56.1,50.6,30.23,SSW,202,0.0,0.0,82,0.00,,,0.00,WUHU21623XXSP,2013-08-17 10:11:00,
2013-08-17 06:16:00,56.1,50.6,30.23,SSW,202,0.0,0.0,82,0.00,,,0.00,WUHU21623XXSP,2013-08-17 10:16:00,
2013-08-17 06:21:00,56.1,50.6,30.23,SSW,202,0.0,0.0,82,0.00,,,0.00,WUHU21623XXSP,2013-08-17 10:21:00,
2013-08-17 06:26:00,56.1,50.6,30.23,SSW,202,0.0,0.0,82,0.00,,,0.00,WUHU21623XXSP,2013-08-17 10:26:00,
2013-08-17 06:31:00,56.1,50.6,30.23,SSW,202,0.0,0.0,82,0.00,,,0.00,WUHU21623XXSP,2013-08-17 10:31:00,
2013-08-17 06:36:00,56.1,50.6,30.23,SSW,202,0.0,0.0,82,0.00,,,0.00,WUHU21623XXSP,2013-08-17 10:36:00,
2013-08-17 06:41:00,56.1,50.6,30.23,SSW,202,0.0,0.0,82,0.00,,,0.00,WUHU21623XXSP,2013-08-17 10:41:00,
2013-08-17 06:46:00,56.1,50.6,30.23,SSW,202,0.0,0.0,82,0.00,,,0.00,WUHU21623XXSP,2013-08-17 10:46:00,
2013-08-17 06:51:00,56.3,50.8,30.23,SSW,202,0.0,0.0,82,0.00,,,0.00,WUHU21623XXSP,2013-08-17 10:51:00,
2013-08-17 06:56:00,56.1,50.6,30.24,SSW,202,0.0,0.0,82,0.00,,,0.00,WUHU21623XXSP,2013-08-17 10:56:00,
2013-08-17 07:01:00,56.3,50.8,30.24,SSW,202,0.0,0.0,82,0.00,,,0.00,WUHU21623XXSP,2013-08-17 11:01:00,
2013-08-17 07:06:00,56.3,50.8,30.24,SSW,202,0.0,0.0,82,0.00,,,0.00,WUHU21623XXSP,2013-08-17 11:06:00,
2013-08-17 07:11:00,56.3,50.8,30.24,SSW,202,0.0,0.0,82,0.00,,,0.00,WUHU21623XXSP,2013-08-17 11:11:00,
2013-08-17 07:16:00,56.3,50.8,30.24,SSW,202,0.0,0.0,82,0.00,,,0.00,WUHU21623XXSP,2013-08-17 11:16:00,
2013-08-17 07:21:00,56.3,50.8,30.24,SSW,202,0.0,0.0,82,0.00,,,0.00,WUHU21623XXSP,2013-08-17 11:21:00,
2013-08-17 07:26:00,56.3,50.8,30.24,SSW,202,0.0,0.0,82,0.00,,,0.00,WUHU21623XXSP,2013-08-17 11:26:00,
2013-08-17 07:31:00,56.3,50.8,30.24,SSW,202,0.0,0.0,82,0.00,,,0.00,WUHU21623XXSP,2013-08-17 11:31:00,
2013-08-17 07:36:00,56.5,51.0,30.24,SSW,202,0.0,0.0,82,0.00,,,0.00,WUHU21623XXSP,2013-08-17 11:36:00,
2013-08-17 07:41:00,56.5,51.0,30.24,SSW,202,0.0,0.0,82,0.00,,,0.00,WUHU21623XXSP,2013-08-17 11:41:00,
2013-08-17 07:46:00,56.5,51.0,30.24,SSW,202,0.0,0.0,82,0.00,,,0.00,WUHU21623XXSP,2013-08-17 11:46:00,
2013-08-17 07:51:00,56.5,51.0,30.25,North,0,0.0,0.0,82,0.00,,,0.00,WUHU21623XXSP,2013-08-17 11:51:00,
2013-08-17 07:56:00,56.5,51.0,30.25,SSW,202,0.0,0.0,82,0.00,,,0.00,WUHU21623XXSP,2013-08-17 11:56:00,
2013-08-17 08:01:00,56.7,51.5,30.25,SSW,202,0.0,0.0,83,0.00,,,0.00,WUHU21623XXSP,2013-08-17 12:01:00,
2013-08-17 08:06:00,56.8,51.7,30.25,SSW,202,0.0,0.0,83,0.00,,,0.00,WUHU21623XXSP,2013-08-17 12:06:00,
2013-08-17 08:11:00,56.8,51.7,30.25,SSW,202,0.0,0.0,83,0.00,,,0.00,WUHU21623XXSP,2013-08-17 12:11:00,
2013-08-17 08:16:00,56.8,51.7,30.25,SSW,202,0.0,0.0,83,0.00,,,0.00,WUHU21623XXSP,2013-08-17 12:16:00,
2013-08-17 08:21:00,57.0,51.9,30.25,SSW,202,0.0,0.0,83,0.00,,,0.00,WUHU21623XXSP,2013-08-17 12:21:00,
2013-08-17 08:26:00,57.0,51.9,30.25,SSW,202,0.0,0.0,83,0.00,,,0.00,WUHU21623XXSP,2013-08-17 12:26:00,
2013-08-17 08:31:00,57.4,52.2,30.25,SSW,202,0.0,0.0,83,0.00,,,0.00,WUHU21623XXSP,2013-08-17 12:31:00,
2013-08-17 08:36:00,57.4,52.2,30.25,SSW,202,0.0,0.0,83,0.00,,,0.00,WUHU21623XXSP,2013-08-17 12:36:00,
2013-08-17 08:41:00,57.6,52.4,30.25,SSW,202,0.0,0.0,83,0.00,,,0.00,WUHU21623XXSP,2013-08-17 12:41:00,
2013-08-17 08:46:00,57.7,52.6,30.25,SSW,202,0.0,0.0,83,0.00,,,0.00,WUHU21623XXSP,2013-08-17 12:46:00,
2013-08-17 08:51:00,57.9,52.8,30.25,SSW,202,0.0,0.0,83,0.00,,,0.00,WUHU21623XXSP,2013-08-17 12:51:00,
2013-08-17 08:56:00,58.3,53.5,30.25,SSW,202,0.0,0.0,84,0.00,,,0.00,WUHU21623XXSP,2013-08-17 12:56:00,
2013-08-17 09:01:00,58.5,53.6,30.26,SSW,202,0.0,0.0,84,0.00,,,0.00,WUHU21623XXSP,2013-08-17 13:01:00,
2013-08-17 09:06:00,58.8,54.0,30.26,SSW,202,0.0,0.0,84,0.00,,,0.00,WUHU21623XXSP,2013-08-17 13:06:00,
2013-08-17 09:11:00,58.8,54.0,30.25,SSW,202,0.0,0.0,84,0.00,,,0.00,WUHU21623XXSP,2013-08-17 13:11:00,
2013-08-17 09:16:00,58.8,54.0,30.26,SSW,202,0.0,0.0,84,0.00,,,0.00,WUHU21623XXSP,2013-08-17 13:16:00,
2013-08-17 09:21:00,59.4,54.5,30.26,SSW,202,0.0,0.0,84,0.00,,,0.00,WUHU21623XXSP,2013-08-17 13:21:00,
2013-08-17 09:26:00,59.7,54.9,30.26,SSW,202,0.0,0.0,84,0.00,,,0.00,WUHU21623XXSP,2013-08-17 13:26:00,
2013-08-17 09:31:00,59.9,55.1,30.26,SSW,202,0.0,0.0,84,0.00,,,0.00,WUHU21623XXSP,2013-08-17 13:31:00,
2013-08-17 09:36:00,60.1,55.3,30.26,SSW,202,0.0,0.0,84,0.00,,,0.00,WUHU21623XXSP,2013-08-17 13:36:00,
2013-08-17 09:41:00,60.4,55.6,30.26,SSW,202,0.0,0.0,84,0.00,,,0.00,WUHU21623XXSP,2013-08-17 13:41:00,
2013-08-17 09:46:00,60.6,55.8,30.26,SSW,202,0.0,0.0,84,0.00,,,0.00,WUHU21623XXSP,2013-08-17 13:46:00,
2013-08-17 09:51:00,61.0,56.1,30.26,SSW,202,0.0,0.0,84,0.00,,,0.00,WUHU21623XXSP,2013-08-17 13:51:00,
2013-08-17 09:56:00,61.0,56.1,30.26,SSW,202,0.0,0.0,84,0.00,,,0.00,WUHU21623XXSP,2013-08-17 13:56:00,
2013-08-17 10:01:00,61.3,56.5,30.26,SSW,202,0.0,0.0,84,0.00,,,0.00,WUHU21623XXSP,2013-08-17 14:01:00,
2013-08-17 10:06:00,61.5,56.3,30.26,SSW,202,0.0,0.0,83,0.00,,,0.00,WUHU21623XXSP,2013-08-17 14:06:00,
2013-08-17 10:11:00,61.9,56.6,30.26,SSW,202,0.0,0.0,83,0.00,,,0.00,WUHU21623XXSP,2013-08-17 14:11:00,
2013-08-17 10:16:00,62.4,57.1,30.26,SSW,202,0.0,0.0,83,0.00,,,0.00,WUHU21623XXSP,2013-08-17 14:16:00,
2013-08-17 10:21:00,62.6,57.7,30.26,SSW,202,0.0,0.0,84,0.00,,,0.00,WUHU21623XXSP,2013-08-17 14:21:00,
2013-08-17 10:26:00,63.0,57.7,30.26,SSW,202,0.0,0.0,83,0.00,,,0.00,WUHU21623XXSP,2013-08-17 14:26:00,
2013-08-17 10:31:00,63.5,58.2,30.26,ESE,112,0.0,0.0,83,0.00,,,0.00,WUHU21623XXSP,2013-08-17 14:31:00,
2013-08-17 10:36:00,63.9,58.6,30.26,ESE,112,0.0,0.0,83,0.00,,,0.00,WUHU21623XXSP,2013-08-17 14:36:00,
2013-08-17 10:41:00,64.2,58.6,30.26,ESE,112,0.0,0.0,82,0.00,,,0.00,WUHU21623XXSP,2013-08-17 14:41:00,
2013-08-17 10:46:00,64.6,58.9,30.26,ESE,112,0.0,0.0,82,0.00,,,0.00,WUHU21623XXSP,2013-08-17 14:46:00,
2013-08-17 10:51:00,65.1,59.1,30.26,ESE,112,0.0,0.0,81,0.00,,,0.00,WUHU21623XXSP,2013-08-17 14:51:00,
2013-08-17 10:56:00,65.5,59.5,30.26,ESE,112,0.0,0.0,81,0.00,,,0.00,WUHU21623XXSP,2013-08-17 14:56:00,
2013-08-17 11:01:00,65.9,60.0,30.26,ESE,112,0.0,0.0,81,0.00,,,0.00,WUHU21623XXSP,2013-08-17 15:01:00,
2013-08-17 11:06:00,65.8,59.6,30.26,SSE,157,0.0,0.0,80,0.00,,,0.00,WUHU21623XXSP,2013-08-17 15:06:00,
2013-08-17 11:11:00,65.9,59.7,30.26,SE,135,0.0,0.0,80,0.00,,,0.00,WUHU21623XXSP,2013-08-17 15:11:00,
2013-08-17 11:16:00,66.1,59.8,30.26,SE,135,0.0,0.0,80,0.00,,,0.00,WUHU21623XXSP,2013-08-17 15:16:00,
2013-08-17 11:21:00,66.2,59.6,30.26,SE,135,0.0,0.0,79,0.00,,,0.00,WUHU21623XXSP,2013-08-17 15:21:00,
2013-08-17 11:26:00,66.2,59.6,30.26,East,90,0.0,0.0,79,0.00,,,0.00,WUHU21623XXSP,2013-08-17 15:26:00,
2013-08-17 11:31:00,66.1,59.2,30.26,ESE,112,0.0,0.0,78,0.00,,,0.00,WUHU21623XXSP,2013-08-17 15:31:00,
2013-08-17 11:36:00,65.8,58.9,30.26,SSE,157,0.0,0.0,78,0.00,,,0.00,WUHU21623XXSP,2013-08-17 15:36:00,
2013-08-17 11:41:00,65.5,57.9,30.26,SSE,157,0.0,0.0,76,0.00,,,0.00,WUHU21623XXSP,2013-08-17 15:41:00,
2013-08-17 11:46:00,66.7,58.6,30.26,SSE,157,0.0,0.0,75,0.00,,,0.00,WUHU21623XXSP,2013-08-17 15:46:00,
2013-08-17 11:51:00,66.6,58.5,30.26,ESE,112,0.0,0.0,75,0.00,,,0.00,WUHU21623XXSP,2013-08-17 15:51:00,
2013-08-17 11:56:00,67.0,58.2,30.26,SE,135,0.0,0.0,73,0.00,,,0.00,WUHU21623XXSP,2013-08-17 15:56:00,
2013-08-17 12:01:00,67.1,58.0,30.26,SE,135,0.0,0.0,72,0.00,,,0.00,WUHU21623XXSP,2013-08-17 16:01:00,
2013-08-17 12:06:00,67.1,57.9,30.26,SE,135,0.0,0.0,72,0.00,,,0.00,WUHU21623XXSP,2013-08-17 16:06:00,
2013-08-17 12:11:00,67.3,57.8,30.25,ENE,67,0.0,0.0,71,0.00,,,0.00,WUHU21623XXSP,2013-08-17 16:11:00,
2013-08-17 12:16:00,67.7,57.3,30.25,East,90,0.0,0.0,69,0.00,,,0.00,WUHU21623XXSP,2013-08-17 16:16:00,
2013-08-17 12:21:00,67.6,57.2,30.25,SE,135,0.0,0.0,69,0.00,,,0.00,WUHU21623XXSP,2013-08-17 16:21:00,
2013-08-17 12:26:00,67.5,56.8,30.25,SE,135,0.0,0.0,68,0.00,,,0.00,WUHU21623XXSP,2013-08-17 16:26:00,
2013-08-17 12:31:00,68.0,56.8,30.25,SE,135,0.0,0.0,67,0.00,,,0.00,WUHU21623XXSP,2013-08-17 16:31:00,
2013-08-17 12:36:00,68.0,56.8,30.25,SE,135,0.0,0.0,67,0.00,,,0.00,WUHU21623XXSP,2013-08-17 16:36:00,
2013-08-17 12:41:00,67.8,56.6,30.25,ESE,112,0.0,0.0,67,0.00,,,0.00,WUHU21623XXSP,2013-08-17 16:41:00,
2013-08-17 12:46:00,68.3,56.3,30.25,SSE,157,0.0,0.0,65,0.00,,,0.00,WUHU21623XXSP,2013-08-17 16:46:00,
2013-08-17 12:51:00,68.3,56.3,30.25,SSE,157,0.0,0.0,65,0.00,,,0.00,WUHU21623XXSP,2013-08-17 16:51:00,
2013-08-17 12:56:00,68.6,56.9,30.25,SSE,157,0.0,0.0,66,0.00,,,0.00,WUHU21623XXSP,2013-08-17 16:56:00,
2013-08-17 13:01:00,68.9,56.8,30.25,SE,135,0.0,0.0,65,0.00,,,0.00,WUHU21623XXSP,2013-08-17 17:01:00,
2013-08-17 13:06:00,68.8,56.3,30.25,East,90,0.0,0.0,64,0.00,,,0.00,WUHU21623XXSP,2013-08-17 17:06:00,
2013-08-17 13:11:00,68.6,55.7,30.25,East,90,0.0,0.0,63,0.00,,,0.00,WUHU21623XXSP,2013-08-17 17:11:00,
2013-08-17 13:16:00,68.9,56.0,30.24,ENE,67,0.0,0.0,63,0.00,,,0.00,WUHU21623XXSP,2013-08-17 17:16:00,
2013-08-17 13:21:00,68.8,55.4,30.24,ESE,112,0.0,0.0,62,0.00,,,0.00,WUHU21623XXSP,2013-08-17 17:21:00,
2013-08-17 13:26:00,68.9,56.0,30.25,SSE,157,0.0,0.0,63,0.00,,,0.00,WUHU21623XXSP,2013-08-17 17:26:00,
2013-08-17 13:31:00,68.8,55.5,30.24,SSW,202,0.0,0.0,62,0.00,,,0.00,WUHU21623XXSP,2013-08-17 17:31:00,
2013-08-17 13:36:00,68.8,54.9,30.24,ESE,112,0.0,0.0,61,0.00,,,0.00,WUHU21623XXSP,2013-08-17 17:36:00,
2013-08-17 13:41:00,68.8,55.0,30.23,SSE,157,0.0,0.0,61,0.00,,,0.00,WUHU21623XXSP,2013-08-17 17:41:00,
2013-08-17 13:46:00,68.8,54.5,30.24,South,180,0.0,0.0,60,0.00,,,0.00,WUHU21623XXSP,2013-08-17 17:46:00,
2013-08-17 13:51:00,68.7,54.0,30.23,SSE,157,0.0,0.0,59,0.00,,,0.00,WUHU21623XXSP,2013-08-17 17:51:00,
2013-08-17 13:56:00,68.6,54.3,30.23,East,90,0.0,0.0,60,0.00,,,0.00,WUHU21623XXSP,2013-08-17 17:56:00,
2013-08-17 14:01:00,68.6,54.8,30.23,East,90,0.0,0.0,61,0.00,,,0.00,WUHU21623XXSP,2013-08-17 18:01:00,
2013-08-17 14:06:00,68.4,54.6,30.23,SE,135,0.0,0.0,61,0.00,,,0.00,WUHU21623XXSP,2013-08-17 18:06:00,
2013-08-17 14:11:00,68.4,54.2,30.23,ESE,112,0.0,0.0,60,0.00,,,0.00,WUHU21623XXSP,2013-08-17 18:11:00,
2013-08-17 14:16:00,68.3,54.5,30.23,SE,135,0.0,0.0,61,0.00,,,0.00,WUHU21623XXSP,2013-08-17 18:16:00,
2013-08-17 14:21:00,68.1,54.3,30.23,South,180,0.0,0.0,61,0.00,,,0.00,WUHU21623XXSP,2013-08-17 18:21:00,
2013-08-17 14:26:00,68.2,54.4,30.23,SE,135,0.0,0.0,61,0.00,,,0.00,WUHU21623XXSP,2013-08-17 18:26:00,
2013-08-17 14:31:00,68.3,54.5,30.23,SSW,202,0.0,0.0,61,0.00,,,0.00,WUHU21623XXSP,2013-08-17 18:31:00,
2013-08-17 14:36:00,68.7,54.9,30.23,SE,135,0.0,0.0,61,0.00,,,0.00,WUHU21623XXSP,2013-08-17 18:36:00,
2013-08-17 14:41:00,69.0,55.2,30.23,East,90,0.0,0.0,61,0.00,,,0.00,WUHU21623XXSP,2013-08-17 18:41:00,
2013-08-17 14:46:00,69.5,55.6,30.23,ESE,112,0.0,0.0,61,0.00,,,0.00,WUHU21623XXSP,2013-08-17 18:46:00,
2013-08-17 14:51:00,69.8,55.4,30.22,West,270,0.0,0.0,60,0.00,,,0.00,WUHU21623XXSP,2013-08-17 18:51:00,
2013-08-17 14:56:00,70.1,55.3,30.22,SE,135,0.0,0.0,59,0.00,,,0.00,WUHU21623XXSP,2013-08-17 18:56:00,
2013-08-17 15:01:00,70.5,55.7,30.22,SSE,157,0.0,0.0,59,0.00,,,0.00,WUHU21623XXSP,2013-08-17 19:01:00,
2013-08-17 15:06:00,70.7,55.9,30.22,SSE,157,0.0,0.0,59,0.00,,,0.00,WUHU21623XXSP,2013-08-17 19:06:00,
2013-08-17 15:11:00,71.1,56.2,30.21,WSW,247,0.0,0.0,59,0.00,,,0.00,WUHU21623XXSP,2013-08-17 19:11:00,
2013-08-17 15:16:00,71.3,55.9,30.21,ESE,112,0.0,0.0,58,0.00,,,0.00,WUHU21623XXSP,2013-08-17 19:16:00,
2013-08-17 15:21:00,71.9,56.5,30.21,South,180,0.0,0.0,58,0.00,,,0.00,WUHU21623XXSP,2013-08-17 19:21:00,
2013-08-17 15:26:00,72.1,56.7,30.21,WSW,247,0.0,0.0,58,0.00,,,0.00,WUHU21623XXSP,2013-08-17 19:26:00,
2013-08-17 15:31:00,72.3,56.4,30.21,SE,135,0.0,0.0,57,0.00,,,0.00,WUHU21623XXSP,2013-08-17 19:31:00,
2013-08-17 15:36:00,72.3,56.4,30.21,ESE,112,0.0,0.0,57,0.00,,,0.00,WUHU21623XXSP,2013-08-17 19:36:00,
2013-08-17 15:41:00,72.4,56.4,30.21,SSE,157,0.0,0.0,57,0.00,,,0.00,WUHU21623XXSP,2013-08-17 19:41:00,
2013-08-17 15:46:00,72.6,57.1,30.21,NNE,22,0.0,0.0,58,0.00,,,0.00,WUHU21623XXSP,2013-08-17 19:46:00,
2013-08-17 15:51:00,72.8,57.4,30.21,NNE,22,0.0,0.0,58,0.00,,,0.00,WUHU21623XXSP,2013-08-17 19:51:00,
2013-08-17 15:56:00,72.9,57.4,30.20,SSW,202,0.0,0.0,58,0.00,,,0.00,WUHU21623XXSP,2013-08-17 19:56:00,
2013-08-17 16:01:00,73.2,57.7,30.20,SE,135,0.0,0.0,58,0.00,,,0.00,WUHU21623XXSP,2013-08-17 20:01:00,
2013-08-17 16:06:00,73.4,57.9,30.20,SE,135,0.0,0.0,58,0.00,,,0.00,WUHU21623XXSP,2013-08-17 20:06:00,
2013-08-17 16:11:00,73.9,58.4,30.20,ESE,112,0.0,0.0,58,0.00,,,0.00,WUHU21623XXSP,2013-08-17 20:11:00,
2013-08-17 16:16:00,74.0,58.0,30.20,ESE,112,0.0,0.0,57,0.00,,,0.00,WUHU21623XXSP,2013-08-17 20:16:00,
2013-08-17 16:21:00,74.3,58.2,30.20,SE,135,0.0,0.0,57,0.00,,,0.00,WUHU21623XXSP,2013-08-17 20:21:00,
2013-08-17 16:26:00,74.3,58.7,30.19,ESE,112,0.0,0.0,58,0.00,,,0.00,WUHU21623XXSP,2013-08-17 20:26:00,
2013-08-17 16:31:00,74.6,59.0,30.19,ESE,112,0.0,0.0,58,0.00,,,0.00,WUHU21623XXSP,2013-08-17 20:31:00,
2013-08-17 16:36:00,74.9,58.8,30.19,ENE,67,0.0,0.0,57,0.00,,,0.00,WUHU21623XXSP,2013-08-17 20:36:00,
2013-08-17 16:41:00,75.0,58.9,30.19,SE,135,0.0,0.0,57,0.00,,,0.00,WUHU21623XXSP,2013-08-17 20:41:00,
2013-08-17 16:46:00,75.3,59.7,30.19,SE,135,0.0,0.0,58,0.00,,,0.00,WUHU21623XXSP,2013-08-17 20:46:00,
2013-08-17 16:51:00,75.6,59.9,30.19,WSW,247,0.0,0.0,58,0.00,,,0.00,WUHU21623XXSP,2013-08-17 20:51:00,
2013-08-17 16:56:00,75.7,59.5,30.19,SSE,157,0.0,0.0,57,0.00,,,0.00,WUHU21623XXSP,2013-08-17 20:56:00,
2013-08-17 17:01:00,75.9,60.1,30.19,SSE,157,0.0,0.0,58,0.00,,,0.00,WUHU21623XXSP,2013-08-17 21:01:00,
2013-08-17 17:06:00,75.7,59.4,30.19,SSE,157,0.0,0.0,57,0.00,,,0.00,WUHU21623XXSP,2013-08-17 21:06:00,
2013-08-17 17:11:00,75.7,59.9,30.19,SSE,157,0.0,0.0,58,0.00,,,0.00,WUHU21623XXSP,2013-08-17 21:11:00,
2013-08-17 17:16:00,75.4,59.6,30.20,SSE,157,0.0,0.0,58,0.00,,,0.00,WUHU21623XXSP,2013-08-17 21:16:00,
2013-08-17 17:21:00,75.4,59.6,30.20,SSE,157,0.0,0.0,58,0.00,,,0.00,WUHU21623XXSP,2013-08-17 21:21:00,
2013-08-17 17:26:00,75.2,59.4,30.20,SSE,157,0.0,0.0,58,0.00,,,0.00,WUHU21623XXSP,2013-08-17 21:26:00,
2013-08-17 17:31:00,75.0,59.8,30.20,ESE,112,0.0,0.0,59,0.00,,,0.00,WUHU21623XXSP,2013-08-17 21:31:00,
2013-08-17 17:36:00,75.0,59.8,30.20,ESE,112,0.0,0.0,59,0.00,,,0.00,WUHU21623XXSP,2013-08-17 21:36:00,
2013-08-17 17:41:00,75.2,59.9,30.20,SE,135,0.0,0.0,59,0.00,,,0.00,WUHU21623XXSP,2013-08-17 21:41:00,
2013-08-17 17:46:00,75.4,60.6,30.20,SSE,157,0.0,0.0,60,0.00,,,0.00,WUHU21623XXSP,2013-08-17 21:46:00,
2013-08-17 17:51:00,75.4,60.6,30.20,North,0,0.0,0.0,60,0.00,,,0.00,WUHU21623XXSP,2013-08-17 21:51:00,
2013-08-17 17:56:00,75.4,60.6,30.20,SSE,157,0.0,0.0,60,0.00,,,0.00,WUHU21623XXSP,2013-08-17 21:56:00,
2013-08-17 18:01:00,75.4,60.6,30.20,ESE,112,0.0,0.0,60,0.00,,,0.00,WUHU21623XXSP,2013-08-17 22:01:00,
2013-08-17 18:06:00,75.4,60.6,30.20,ESE,112,0.0,0.0,60,0.00,,,0.00,WUHU21623XXSP,2013-08-17 22:06:00,
2013-08-17 18:11:00,75.0,60.3,30.20,ESE,112,0.0,0.0,60,0.00,,,0.00,WUHU21623XXSP,2013-08-17 22:11:00,
2013-08-17 18:16:00,75.0,60.7,30.20,ESE,112,0.0,0.0,61,0.00,,,0.00,WUHU21623XXSP,2013-08-17 22:16:00,
2013-08-17 18:21:00,74.8,60.5,30.19,ESE,112,0.0,0.0,61,0.00,,,0.00,WUHU21623XXSP,2013-08-17 22:21:00,
2013-08-17 18:26:00,74.8,60.5,30.20,ESE,112,0.0,0.0,61,0.00,,,0.00,WUHU21623XXSP,2013-08-17 22:26:00,
2013-08-17 18:31:00,74.8,60.9,30.20,ESE,112,0.0,0.0,62,0.00,,,0.00,WUHU21623XXSP,2013-08-17 22:31:00,
2013-08-17 18:36:00,74.5,60.6,30.20,ESE,112,0.0,0.0,62,0.00,,,0.00,WUHU21623XXSP,2013-08-17 22:36:00,
2013-08-17 18:41:00,74.5,60.6,30.19,ESE,112,0.0,0.0,62,0.00,,,0.00,WUHU21623XXSP,2013-08-17 22:41:00,
2013-08-17 18:46:00,74.5,60.6,30.19,ESE,112,0.0,0.0,62,0.00,,,0.00,WUHU21623XXSP,2013-08-17 22:46:00,
2013-08-17 18:51:00,74.3,60.4,30.20,ESE,112,0.0,0.0,62,0.00,,,0.00,WUHU21623XXSP,2013-08-17 22:51:00,
2013-08-17 18:56:00,74.1,60.2,30.20,ESE,112,0.0,0.0,62,0.00,,,0.00,WUHU21623XXSP,2013-08-17 22:56:00,
2013-08-17 19:01:00,74.1,60.2,30.19,ESE,112,0.0,0.0,62,0.00,,,0.00,WUHU21623XXSP,2013-08-17 23:01:00,
2013-08-17 19:06:00,73.9,60.5,30.19,ESE,112,0.0,0.0,63,0.00,,,0.00,WUHU21623XXSP,2013-08-17 23:06:00,
2013-08-17 19:11:00,73.9,60.5,30.19,ESE,112,0.0,0.0,63,0.00,,,0.00,WUHU21623XXSP,2013-08-17 23:11:00,
2013-08-17 19:16:00,73.8,60.3,30.19,ESE,112,0.0,0.0,63,0.00,,,0.00,WUHU21623XXSP,2013-08-17 23:16:00,
2013-08-17 19:21:00,73.6,60.2,30.19,ESE,112,0.0,0.0,63,0.00,,,0.00,WUHU21623XXSP,2013-08-17 23:21:00,
2013-08-17 19:26:00,73.4,60.0,30.19,ESE,112,0.0,0.0,63,0.00,,,0.00,WUHU21623XXSP,2013-08-17 23:26:00,
2013-08-17 19:31:00,73.2,59.8,30.19,ESE,112,0.0,0.0,63,0.00,,,0.00,WUHU21623XXSP,2013-08-17 23:31:00,
2013-08-17 19:36:00,73.0,60.1,30.19,ESE,112,0.0,0.0,64,0.00,,,0.00,WUHU21623XXSP,2013-08-17 23:36:00,
2013-08-17 19:41:00,72.7,59.3,30.19,ESE,112,0.0,0.0,63,0.00,,,0.00,WUHU21623XXSP,2013-08-17 23:41:00,
2013-08-17 19:46:00,72.7,59.8,30.19,ESE,112,0.0,0.0,64,0.00,,,0.00,WUHU21623XXSP,2013-08-17 23:46:00,
2013-08-17 19:51:00,72.3,59.4,30.19,ESE,112,0.0,0.0,64,0.00,,,0.00,WUHU21623XXSP,2013-08-17 23:51:00,
2013-08-17 19:56:00,72.3,59.4,30.19,ESE,112,0.0,0.0,64,0.00,,,0.00,WUHU21623XXSP,2013-08-17 23:56:00,
2013-08-17 20:01:00,72.3,59.4,30.19,ESE,112,0.0,0.0,64,0.00,,,0.00,WUHU21623XXSP,2013-08-18 00:01:00,
2013-08-17 20:06:00,72.1,59.3,30.19,ESE,112,0.0,0.0,64,0.00,,,0.00,WUHU21623XXSP,2013-08-18 00:06:00,
2013-08-17 20:11:00,71.8,58.9,30.19,ESE,112,0.0,0.0,64,0.00,,,0.00,WUHU21623XXSP,2013-08-18 00:11:00,
2013-08-17 20:16:00,71.8,59.3,30.19,ESE,112,0.0,0.0,65,0.00,,,0.00,WUHU21623XXSP,2013-08-18 00:16:00,
2013-08-17 20:21:00,71.4,59.0,30.19,ESE,112,0.0,0.0,65,0.00,,,0.00,WUHU21623XXSP,2013-08-18 00:21:00,
2013-08-17 20:26:00,71.2,58.8,30.19,ESE,112,0.0,0.0,65,0.00,,,0.00,WUHU21623XXSP,2013-08-18 00:26:00,
2013-08-17 20:31:00,71.2,58.8,30.19,ESE,112,0.0,0.0,65,0.00,,,0.00,WUHU21623XXSP,2013-08-18 00:31:00,
2013-08-17 20:36:00,71.2,58.9,30.19,ESE,112,0.0,0.0,66,0.00,,,0.00,WUHU21623XXSP,2013-08-18 00:36:00,
2013-08-17 20:41:00,70.9,58.9,30.19,ESE,112,0.0,0.0,66,0.00,,,0.00,WUHU21623XXSP,2013-08-18 00:41:00,
2013-08-17 20:46:00,70.9,58.9,30.19,ESE,112,0.0,0.0,66,0.00,,,0.00,WUHU21623XXSP,2013-08-18 00:46:00,
2013-08-17 20:51:00,70.5,59.0,30.19,ESE,112,0.0,0.0,67,0.00,,,0.00,WUHU21623XXSP,2013-08-18 00:51:00,
2013-08-17 20:56:00,70.2,58.2,30.19,ESE,112,0.0,0.0,66,0.00,,,0.00,WUHU21623XXSP,2013-08-18 00:56:00,
2013-08-17 21:01:00,70.0,58.0,30.19,ESE,112,0.0,0.0,66,0.00,,,0.00,WUHU21623XXSP,2013-08-18 01:01:00,
2013-08-17 21:06:00,69.4,57.5,30.19,ESE,112,0.0,0.0,66,0.00,,,0.00,WUHU21623XXSP,2013-08-18 01:06:00,
2013-08-17 21:11:00,69.1,57.6,30.19,ESE,112,0.0,0.0,67,0.00,,,0.00,WUHU21623XXSP,2013-08-18 01:11:00,
2013-08-17 21:16:00,69.1,57.6,30.19,ESE,112,0.0,0.0,67,0.00,,,0.00,WUHU21623XXSP,2013-08-18 01:16:00,
2013-08-17 21:21:00,68.5,57.1,30.19,ESE,112,0.0,0.0,67,0.00,,,0.00,WUHU21623XXSP,2013-08-18 01:21:00,
2013-08-17 21:26:00,68.4,57.4,30.19,ESE,112,0.0,0.0,68,0.00,,,0.00,WUHU21623XXSP,2013-08-18 01:26:00,
2013-08-17 21:31:00,68.0,57.1,30.19,ESE,112,0.0,0.0,68,0.00,,,0.00,WUHU21623XXSP,2013-08-18 01:31:00,
2013-08-17 21:36:00,67.8,56.9,30.19,ESE,112,0.0,0.0,68,0.00,,,0.00,WUHU21623XXSP,2013-08-18 01:36:00,
2013-08-17 21:41:00,67.6,57.1,30.19,ESE,112,0.0,0.0,69,0.00,,,0.00,WUHU21623XXSP,2013-08-18 01:41:00,
2013-08-17 21:46:00,67.3,56.8,30.19,ESE,112,0.0,0.0,69,0.00,,,0.00,WUHU21623XXSP,2013-08-18 01:46:00,
2013-08-17 21:51:00,67.1,56.6,30.19,ESE,112,0.0,0.0,69,0.00,,,0.00,WUHU21623XXSP,2013-08-18 01:51:00,
2013-08-17 21:56:00,66.7,56.2,30.19,ESE,112,0.0,0.0,69,0.00,,,0.00,WUHU21623XXSP,2013-08-18 01:56:00,
2013-08-17 22:01:00,66.7,56.7,30.19,ESE,112,0.0,0.0,70,0.00,,,0.00,WUHU21623XXSP,2013-08-18 02:01:00,
2013-08-17 22:06:00,66.4,56.3,30.19,ESE,112,0.0,0.0,70,0.00,,,0.00,WUHU21623XXSP,2013-08-18 02:06:00,
2013-08-17 22:11:00,66.4,56.3,30.19,ESE,112,0.0,0.0,70,0.00,,,0.00,WUHU21623XXSP,2013-08-18 02:11:00,
2013-08-17 22:16:00,66.2,56.5,30.19,ESE,112,0.0,0.0,71,0.00,,,0.00,WUHU21623XXSP,2013-08-18 02:16:00,
2013-08-17 22:21:00,66.0,56.3,30.19,ESE,112,0.0,0.0,71,0.00,,,0.00,WUHU21623XXSP,2013-08-18 02:21:00,
2013-08-17 22:26:00,66.0,56.3,30.19,ESE,112,0.0,0.0,71,0.00,,,0.00,WUHU21623XXSP,2013-08-18 02:26:00,
2013-08-17 22:31:00,65.8,56.2,30.20,ESE,112,0.0,0.0,71,0.00,,,0.00,WUHU21623XXSP,2013-08-18 02:31:00,
2013-08-17 22:36:00,65.8,56.2,30.20,ESE,112,0.0,0.0,71,0.00,,,0.00,WUHU21623XXSP,2013-08-18 02:36:00,
2013-08-17 22:41:00,65.5,56.2,30.19,ESE,112,0.0,0.0,72,0.00,,,0.00,WUHU21623XXSP,2013-08-18 02:41:00,
2013-08-17 22:46:00,65.5,56.2,30.19,ESE,112,0.0,0.0,72,0.00,,,0.00,WUHU21623XXSP,2013-08-18 02:46:00,
2013-08-17 22:51:00,65.3,56.0,30.19,ESE,112,0.0,0.0,72,0.00,,,0.00,WUHU21623XXSP,2013-08-18 02:51:00,
2013-08-17 22:56:00,65.3,56.0,30.19,ESE,112,0.0,0.0,72,0.00,,,0.00,WUHU21623XXSP,2013-08-18 02:56:00,
2013-08-17 23:01:00,65.1,56.2,30.19,ESE,112,0.0,0.0,73,0.00,,,0.00,WUHU21623XXSP,2013-08-18 03:01:00,
2013-08-17 23:06:00,65.1,56.2,30.19,ESE,112,0.0,0.0,73,0.00,,,0.00,WUHU21623XXSP,2013-08-18 03:06:00,
2013-08-17 23:11:00,65.1,56.2,30.19,ESE,112,0.0,0.0,73,0.00,,,0.00,WUHU21623XXSP,2013-08-18 03:11:00,
2013-08-17 23:16:00,64.9,56.1,30.19,ESE,112,0.0,0.0,73,0.00,,,0.00,WUHU21623XXSP,2013-08-18 03:16:00,
2013-08-17 23:21:00,64.8,55.9,30.19,ESE,112,0.0,0.0,73,0.00,,,0.00,WUHU21623XXSP,2013-08-18 03:21:00,
2013-08-17 23:26:00,64.8,55.9,30.19,ESE,112,0.0,0.0,73,0.00,,,0.00,WUHU21623XXSP,2013-08-18 03:26:00,
2013-08-17 23:31:00,64.6,55.7,30.18,ESE,112,0.0,0.0,73,0.00,,,0.00,WUHU21623XXSP,2013-08-18 03:31:00,
2013-08-17 23:36:00,64.6,55.7,30.18,ESE,112,0.0,0.0,73,0.00,,,0.00,WUHU21623XXSP,2013-08-18 03:36:00,
2013-08-17 23:41:00,64.2,55.8,30.18,ESE,112,0.0,0.0,74,0.00,,,0.00,WUHU21623XXSP,2013-08-18 03:41:00,
2013-08-17 23:46:00,64.2,55.8,30.18,ESE,112,0.0,0.0,74,0.00,,,0.00,WUHU21623XXSP,2013-08-18 03:46:00,
2013-08-17 23:51:00,64.0,55.6,30.19,ESE,112,0.0,0.0,74,0.00,,,0.00,WUHU21623XXSP,2013-08-18 03:51:00,
2013-08-17 23:56:00,64.0,55.6,30.19,ESE,112,0.0,0.0,74,0.00,,,0.00,WUHU21623XXSP,2013-08-18 03:56:00,